Wetbulb
42.90 43.53 43.84 44.10 44.43 44.87 45.73 46.51 47.53 48.12 48.41 48.41 48.28 48.01 48.00 48.27 46.91 42.72 40.99 42.17 40.42 34.81 35.04 38.79 39.70 35.49 35.96 35.84 31.81 34.39 36.32 36.70 34.43 30.71 31.58 32.39 32.77 34.52 34.15 35.62 33.84 34.29 32.35 31.77 31.43 31.61 32.04 40.54 39.81 40.63 43.35 40.04 39.41 45.17
42.62 43.45 43.63 43.83 44.01 44.58 45.47 46.34 47.58 47.69 47.66 47.96 47.81 47.88 47.93 48.63 46.16 44.99 38.76 40.29 42.46 37.35 35.25 39.01 40.40 41.70 41.74 41.40 37.87 38.03 36.86 37.65 37.32 33.72 32.17 34.79 32.70 33.53 35.19 31.22 37.18 33.34 36.20 33.93 36.42 37.42 41.23 40.58 40.70 39.68 39.18 38.48 39.81 43.18
42.59 43.12 43.35 43.71 43.61 44.31 45.09 46.39 47.15 46.91 47.48 46.50 46.73 47.01 46.57 46.41 46.67 45.33 40.27 39.55 40.29 35.25 36.09 37.52 36.55 40.43 42.70 43.75 45.02 36.16 38.11 40.34 39.86 41.20 36.50 33.60 32.36 35.82 32.17 33.32 34.71 36.57 38.38 35.22 36.62 40.04 39.76 39.17 38.17 38.50 38.30 38.66 38.62 39.78
42.24 42.69 42.98 43.53 43.52 43.78 44.78 46.92 46.78 46.91 47.61 46.66 46.49 46.54 46.76 46.81 46.78 44.56 41.88 40.53 39.62 35.55 32.09 33.13 40.52 38.79 42.57 44.27 43.10 42.58 40.69 41.86 41.13 39.57 33.24 33.98 31.97 36.38 33.69 35.74 35.75 37.91 37.51 35.95 36.24 37.59 36.93 38.21 38.42 40.19 38.82 38.78 38.71 38.24
42.20 42.18 42.47 43.01 43.52 43.28 44.32 46.42 46.69 46.76 46.94 47.55 47.03 46.96 46.66 46.36 45.48 43.66 42.54 41.91 42.15 37.55 30.84 32.56 38.35 39.90 41.27 42.37 41.39 41.98 40.57 38.74 37.08 34.93 32.36 32.17 36.82 35.39 34.23 36.52 34.65 38.44 36.93 36.06 37.29 39.29 41.40 42.32 42.63 39.87 38.14 37.78 38.15 35.91
41.76 41.62 41.93 42.57 43.48 43.20 44.79 45.36 46.57 46.60 46.60 47.45 47.32 47.51 46.59 46.21 46.02 43.16 37.48 43.26 42.82 41.33 34.39 29.04 36.03 36.74 39.49 40.81 40.10 40.24 39.84 37.85 36.75 34.90 33.60 34.70 38.38 36.30 34.20 33.22 38.64 40.04 40.60 42.73 41.09 42.47 40.32 37.21 38.54 39.22 38.11 36.90 36.39 35.90
41.56 41.42 41.41 42.25 43.34 42.07 43.60 44.53 45.74 46.85 46.37 46.14 47.14 47.34 46.53 46.25 43.44 38.56 36.89 40.33 43.52 43.54 34.93 28.30 29.33 35.47 38.08 37.17 35.15 34.93 35.06 34.13 33.60 32.54 31.96 33.34 34.64 37.40 34.86 33.49 37.96 40.34 41.86 41.12 39.98 37.83 35.63 36.16 37.51 38.06 37.38 36.43 36.06 35.37
41.30 41.10 41.32 41.63 42.60 42.71 42.77 43.49 44.37 46.87 46.28 45.87 45.31 45.02 44.06 43.20 40.53 36.79 41.95 43.94 43.46 38.55 35.80 27.39 27.61 31.73 37.37 32.91 31.61 34.15 32.91 32.91 32.35 31.93 32.27 32.09 33.18 32.82 31.79 36.90 36.69 38.42 40.17 39.39 37.61 39.32 39.73 37.83 36.81 36.04 35.82 34.64 33.08 32.45
41.11 40.76 41.11 41.72 41.87 42.87 41.97 42.43 43.37 43.68 45.30 45.53 43.99 43.19 39.83 35.67 33.03 36.47 43.81 42.99 41.99 37.85 29.95 27.71 26.52 26.15 35.95 32.45 33.56 32.89 34.11 29.15 33.22 30.30 30.92 33.33 30.02 29.89 34.95 35.78 36.16 36.14 37.76 37.80 38.11 36.59 36.80 35.61 34.53 33.86 34.02 33.56 31.68 31.73
40.91 40.48 40.58 41.52 41.81 42.47 42.94 41.80 42.66 43.11 42.91 41.02 38.53 34.65 31.44 37.39 43.24 43.17 37.06 33.12 32.68 32.71 32.39 27.65 30.33 28.08 33.11 31.17 29.87 29.61 30.95 28.48 26.34 29.52 33.22 30.53 29.74 34.25 34.64 36.88 38.10 36.44 38.13 37.02 32.52 31.82 33.32 33.00 32.89 33.27 33.60 34.18 33.81 33.23
40.79 40.36 40.01 40.95 40.84 41.51 42.45 42.52 41.96 42.47 41.53 35.75 32.35 32.12 37.26 41.48 37.25 32.85 29.01 28.69 29.82 26.99 29.38 29.26 30.65 28.82 34.29 28.50 27.29 29.48 26.60 27.58 23.73 26.82 28.09 27.42 27.40 31.18 34.80 34.72 35.32 36.22 37.25 37.86 39.09 37.49 37.16 35.27 33.46 33.78 34.17 34.39 34.06 33.36
40.65 40.33 39.69 40.42 40.69 40.89 42.33 42.82 42.40 38.90 37.90 36.96 36.86 38.64 37.23 33.00 29.45 26.00 24.33 27.73 26.43 24.89 29.03 28.65 30.17 31.49 32.34 33.10 28.88 29.41 25.70 26.08 21.90 28.53 23.71 22.29 28.03 31.02 32.99 33.84 34.23 36.09 36.71 36.43 37.36 35.94 35.49 35.00 35.44 34.98 33.49 33.32 33.59 33.23
40.75 40.05 39.63 39.94 40.48 40.39 42.66 42.91 42.53 42.00 40.78 37.65 33.66 29.25 29.03 26.60 17.09 18.66 17.81 22.90 23.71 28.31 29.77 29.66 28.57 31.35 30.59 31.67 28.04 27.48 24.21 22.87 28.78 23.58 22.48 26.98 29.62 31.91 32.38 33.16 33.86 35.76 35.56 35.45 35.27 35.43 34.58 33.77 33.89 33.70 32.95 33.31 33.23 31.89
40.69 40.02 39.64 39.84 39.92 40.41 42.78 42.81 42.61 41.36 35.65 28.32 25.08 16.72 21.81 19.36 22.25 23.81 24.73 25.59 27.67 28.89 29.59 29.04 28.16 28.37 29.90 27.65 27.77 23.11 27.35 26.90 20.72 17.52 19.11 27.06 29.43 31.17 31.99 33.14 33.68 33.21 33.64 33.45 33.15 33.60 32.98 32.61 31.82 31.44 31.30 31.65 30.75 29.83
40.70 39.90 39.66 38.64 38.85 41.03 42.38 43.11 42.26 37.06 31.55 26.52 26.43 16.91 20.67 27.19 27.92 29.85 30.47 30.24 31.85 32.67 31.04 30.37 29.85 30.20 28.34 26.34 28.18 25.39 21.91 19.70 21.07 20.48 25.00 28.31 30.68 30.62 30.76 31.42 32.17 32.24 31.56 32.09 32.72 31.07 30.10 30.32 29.78 28.72 30.12 30.43 28.69 26.92
40.41 39.05 36.12 38.72 39.47 41.24 43.44 40.58 36.91 33.93 30.84 28.97 27.23 24.51 28.40 27.91 28.79 30.04 30.84 30.12 33.48 32.04 32.18 31.07 27.27 25.47 24.69 26.14 22.40 21.93 21.20 19.19 23.27 25.88 28.47 29.99 29.76 30.21 30.58 31.23 31.38 31.24 30.85 30.27 30.05 29.42 28.85 28.42 27.72 27.33 27.99 27.30 26.49 26.45
39.30 32.68 37.80 38.19 40.18 39.75 39.55 33.64 32.88 30.90 28.99 27.96 27.58 28.52 28.26 28.56 28.62 30.31 31.21 31.24 34.04 31.08 27.36 27.55 22.07 22.32 26.99 22.66 20.65 25.04 23.19 24.44 26.47 28.32 29.41 30.11 30.32 30.26 30.60 30.11 29.25 29.77 29.37 28.90 28.33 28.13 27.28 28.04 27.75 27.70 26.05 27.15 27.89 27.61
32.16 33.35 36.84 37.80 38.00 34.58 32.57 31.95 30.96 29.71 27.48 28.48 27.38 28.11 28.49 28.65 30.06 31.15 32.20 32.16 30.79 29.87 28.70 26.91 28.81 24.29 22.46 20.86 22.40 25.37 27.42 27.90 27.98 28.37 28.70 29.99 30.47 30.58 30.53 29.60 29.59 29.28 28.56 27.87 28.11 27.94 27.62 27.73 27.07 26.17 25.99 25.23 23.90 23.75
34.27 32.89 36.42 39.77 36.22 30.84 28.33 28.96 30.57 25.50 26.52 29.79 30.24 29.55 29.56 29.42 31.42 32.11 30.81 30.85 31.23 31.02 29.96 28.45 24.92 24.02 24.67 27.32 27.28 28.26 28.05 28.34 27.16 27.55 27.98 28.69 29.59 29.02 28.84 28.91 28.93 28.74 27.91 28.01 28.36 27.95 27.66 27.99 27.13 26.58 25.86 26.61 24.89 24.40
38.01 38.50 39.38 39.27 36.34 29.88 27.84 26.99 30.67 28.17 25.75 28.76 29.02 27.25 27.87 28.40 29.61 28.65 29.15 28.83 28.76 28.56 26.56 25.57 25.16 26.04 26.37 27.98 29.08 30.02 29.07 29.28 28.38 26.28 25.95 27.29 29.17 29.13 29.20 29.25 28.54 28.83 28.28 27.80 27.31 27.37 26.85 25.91 26.07 26.12 26.36 25.58 24.88 23.27
34.90 34.20 36.11 32.71 29.97 29.70 27.31 25.57 26.20 27.81 29.13 27.43 28.58 27.33 26.52 28.92 27.70 27.27 27.08 27.41 25.20 23.96 25.56 27.46 27.50 28.07 29.69 29.91 30.60 30.54 30.28 30.20 29.13 29.26 27.08 25.79 28.28 29.09 28.62 28.78 28.97 28.88 28.07 27.90 27.11 25.76 27.75 26.70 25.24 25.17 25.55 24.45 24.69 24.69
31.47 36.02 29.67 30.92 27.48 28.04 26.37 27.29 26.51 27.28 27.45 28.37 26.83 26.86 23.80 23.22 23.89 25.10 26.47 23.89 23.78 25.02 26.00 28.43 28.60 28.63 29.15 28.58 28.91 30.01 30.21 30.08 29.68 29.18 28.81 28.92 27.27 27.47 27.29 28.55 28.55 27.27 27.54 27.95 27.93 26.81 25.39 24.97 24.66 24.10 23.02 19.83 20.19 20.51
34.86 31.90 27.69 26.55 21.03 19.14 25.15 27.49 24.54 25.93 23.96 24.71 26.00 23.04 21.85 22.57 25.43 27.73 21.95 24.43 25.35 27.16 27.70 28.70 28.88 29.44 28.96 29.14 29.52 28.74 29.94 30.25 28.93 28.49 28.34 28.24 28.38 28.18 27.67 26.96 28.16 26.84 25.53 24.23 26.08 25.92 23.43 18.99 18.00 20.31 18.91 19.78 20.03 17.85
32.75 25.26 18.12 17.70 20.65 13.84 23.39 19.23 26.03 25.43 23.74 21.30 20.83 18.24 20.66 23.15 25.41 22.07 21.21 23.22 25.77 28.03 28.69 27.66 30.00 28.97 29.08 29.01 26.92 27.12 27.55 29.29 27.99 27.28 28.42 27.68 25.24 24.03 25.50 25.06 25.42 25.61 25.65 24.46 23.24 21.76 20.53 18.77 16.28 18.65 17.80 17.28 16.22 16.85
17.29 13.92 16.39 14.33 17.62 12.81 11.52 14.44 16.55 18.12 13.12 15.60 17.43 20.22 19.55 23.57 18.05 16.09 18.32 22.29 25.43 26.25 25.02 26.34 27.72 28.72 26.51 25.89 26.29 27.28 27.81 29.86 27.97 24.32 24.61 25.97 23.84 23.55 22.09 21.76 21.34 21.86 23.57 22.52 19.19 17.82 14.91 16.04 16.66 16.71 15.86 16.31 15.17 13.13
9.28 11.67 12.17 13.64 11.28 14.89 15.73 10.78 9.43 10.74 12.83 12.20 17.08 20.89 20.14 15.98 12.36 13.78 21.17 23.66 24.61 25.41 24.82 27.06 27.25 26.59 25.17 26.39 26.51 26.46 25.82 28.05 28.01 24.77 24.20 25.92 26.33 24.98 22.65 21.81 21.38 19.86 19.58 19.95 17.90 16.11 14.74 14.33 14.23 12.99 12.45 10.03 3.78 9.82
8.41 11.74 22.82 26.15 24.17 22.73 17.63 18.88 20.85 16.35 10.66 12.88 16.90 12.16 12.98 6.88 10.31 21.35 25.93 26.48 27.44 27.48 26.42 27.92 28.72 28.45 26.57 24.28 22.33 21.79 22.50 23.31 23.39 20.95 20.13 19.98 20.66 22.87 24.88 22.11 18.55 17.85 19.05 17.92 17.35 16.84 14.22 12.33 11.03 10.13 7.94 5.74 2.70 1.80
18.12 21.41 15.13 18.32 17.72 20.84 13.04 14.39 13.37 11.90 16.10 20.42 17.23 9.66 9.80 12.58 18.74 25.10 26.23 27.16 26.92 25.63 23.94 23.31 24.01 24.14 21.31 20.02 19.95 20.03 19.72 19.41 19.23 19.63 19.44 17.45 15.92 15.52 15.56 15.54 14.67 13.25 12.14 12.70 12.55 11.90 11.39 10.26 8.56 6.32 4.59 2.79 -1.00 -3.30
17.27 22.76 20.33 10.12 13.70 17.02 15.94 15.84 16.56 21.18 22.68 19.34 14.20 17.71 19.98 21.04 21.78 23.97 26.19 26.27 25.95 24.97 22.81 20.72 19.97 20.66 19.93 18.81 18.24 19.02 20.28 21.67 20.46 15.17 13.92 13.56 13.93 11.38 9.75 10.97 10.63 11.09 12.63 12.28 11.16 7.81 5.25 3.86 1.90 0.46 -1.86 -2.05 -5.38 -5.36
18.54 23.33 16.16 9.57 11.22 13.70 15.21 18.56 18.62 21.07 23.63 24.40 24.27 22.85 21.14 20.59 21.51 23.96 27.19 26.02 22.96 20.79 21.35 20.79 18.51 21.83 20.06 19.29 15.95 14.01 13.36 14.85 21.71 20.78 16.39 14.52 12.36 8.89 7.81 7.05 5.47 4.38 6.12 5.98 4.18 2.79 2.67 -0.75 -1.23 -3.87 -5.03 -6.14 -5.76 -6.28
21.54 19.83 17.59 20.27 20.38 22.25 23.70 19.91 22.63 22.95 20.49 19.98 18.87 19.72 18.78 20.34 21.56 20.52 18.83 22.65 22.73 21.57 20.46 19.72 19.54 19.20 17.39 17.00 17.94 16.58 12.53 10.91 12.90 13.78 12.91 10.17 7.04 4.67 2.66 0.40 0.73 2.62 2.37 0.93 -1.14 -2.73 -4.67 -6.76 -6.46 -6.86 -7.55 -8.86 -10.55 -10.06
16.07 13.95 18.12 18.07 21.87 23.86 19.58 19.06 21.30 22.62 22.40 21.72 21.34 16.82 15.53 14.22 13.71 16.87 15.73 17.46 26.36 23.35 20.46 19.96 16.44 11.67 11.92 11.24 10.68 10.32 9.65 10.05 9.49 8.12 6.98 4.08 1.72 0.56 -0.07 -1.39 -1.29 -0.71 -2.62 -4.68 -5.92 -6.46 -7.23 -8.05 -8.68 -9.37 -9.52 -10.75 -11.44 -11.61
15.09 15.98 18.42 19.31 22.56 24.17 22.85 21.74 20.47 19.20 17.58 17.39 17.41 15.45 10.73 12.05 11.08 14.89 15.94 14.06 16.18 17.39 14.20 11.88 10.59 9.35 8.20 7.77 6.76 5.24 4.86 4.12 2.95 3.72 0.05 -1.72 -3.83 -3.03 -3.13 -2.54 -2.64 -3.95 -5.53 -6.46 -6.62 -7.19 -8.59 -9.79 -10.93 -11.12 -11.98 -12.32 -11.78 -11.09
MSLP
997.48 996.81 995.97 995.01 993.83 992.52 991.07 989.66 988.34 987.29 986.00 985.02 984.90 985.42 985.98 986.75 987.49 989.44 990.37 991.51 992.30 993.50 994.88 995.38 995.51 995.96 997.23 998.40 998.71 998.69 1000.18 1000.18 1000.68 1000.90 999.85 998.56 998.38 997.89 997.73 997.41 997.10 997.55 997.97 998.18 998.39 997.89 996.42 995.22 995.92 995.07 994.78 994.55 994.79 994.49
996.76 996.08 995.26 994.26 993.05 991.71 990.22 988.86 987.66 986.69 985.64 984.65 984.53 984.33 984.27 985.18 987.07 988.60 990.67 991.58 991.96 993.48 995.46 995.88 996.10 996.08 995.92 996.18 996.70 998.40 998.20 997.93 998.52 999.57 999.05 997.38 997.04 996.82 995.86 996.71 997.18 997.39 996.56 996.64 996.96 995.59 995.06 995.23 994.88 994.86 994.76 995.13 995.46 995.69
996.12 995.46 994.70 993.72 992.51 991.13 989.72 988.34 987.46 986.85 986.13 985.65 985.16 984.45 983.85 985.65 986.88 988.06 990.33 991.83 993.00 994.25 995.86 996.33 996.73 996.83 996.61 996.41 996.14 997.71 997.58 997.74 997.92 998.14 998.53 997.94 996.36 995.58 995.50 995.08 995.79 996.34 996.01 996.20 996.37 995.02 995.30 995.05 995.47 994.84 994.87 995.53 996.19 996.50
995.60 994.97 994.23 993.28 992.18 990.76 989.41 988.04 987.39 987.05 986.58 986.65 986.36 986.54 986.97 987.24 987.79 988.31 990.15 991.04 991.47 993.04 995.03 996.56 996.58 996.60 996.59 996.61 996.47 996.72 997.32 997.83 998.42 998.77 998.96 997.89 996.44 995.75 994.78 994.32 993.90 994.65 995.86 995.94 995.71 995.21 995.16 995.23 995.40 995.05 995.32 995.58 996.28 997.25
995.17 994.59 993.86 992.94 991.91 990.68 989.31 988.07 987.44 987.23 987.07 987.00 987.27 987.25 987.83 988.23 988.77 989.48 990.78 991.34 991.01 991.73 994.99 996.45 996.72 996.64 996.70 996.72 996.96 996.34 997.48 997.92 998.09 998.05 997.56 997.35 995.47 995.49 994.76 994.39 993.30 993.16 994.14 994.69 993.91 993.87 994.15 994.40 994.22 994.88 995.67 996.29 996.68 997.28
994.81 994.29 993.60 992.76 991.84 990.79 989.45 988.42 987.59 987.35 987.34 987.09 987.67 987.91 988.45 989.09 989.70 990.60 991.82 991.92 991.59 992.27 994.34 996.14 996.71 996.58 996.41 996.35 996.48 996.68 996.87 997.19 997.26 996.88 996.65 997.22 995.61 994.10 993.68 993.24 991.80 991.54 992.37 992.98 993.50 993.63 994.32 994.67 994.88 995.27 995.69 996.14 996.82 997.45
994.48 994.02 993.42 992.67 991.88 991.10 990.16 988.91 987.91 987.43 987.68 987.67 987.48 988.19 988.87 989.34 989.78 990.87 991.66 991.76 991.80 991.85 994.08 996.23 996.41 996.48 996.47 996.51 996.67 996.82 996.95 996.74 996.92 997.13 996.16 995.27 994.79 993.87 993.03 992.13 990.86 991.19 991.66 992.68 992.88 993.48 994.79 995.08 994.88 995.25 995.85 996.47 997.26 998.57
994.15 993.77 993.29 992.65 991.91 991.23 990.61 989.76 988.80 987.73 987.89 988.05 988.66 988.81 989.46 990.05 990.80 991.50 991.87 992.15 991.88 993.38 994.97 995.85 996.45 996.55 996.46 996.64 996.92 996.87 996.39 996.61 996.99 996.50 995.78 994.99 994.32 994.31 992.82 991.61 990.86 991.18 991.75 992.43 992.91 992.95 993.53 994.66 995.67 996.24 996.44 996.61 997.57 999.15
993.83 993.52 993.13 992.66 992.02 991.42 991.04 990.49 989.86 989.22 988.54 988.89 989.56 990.05 990.50 991.39 992.23 992.55 992.72 992.81 993.00 993.96 994.67 995.45 995.82 996.05 996.22 996.67 996.70 996.87 996.74 996.78 996.68 996.06 995.44 995.10 994.31 993.11 991.12 990.82 990.89 991.06 991.15 991.90 993.10 993.68 994.23 994.80 995.60 996.42 996.89 997.42 997.83 999.59
993.49 993.22 992.93 992.56 992.01 991.55 991.08 990.85 990.47 990.20 990.06 990.10 990.53 991.21 992.14 992.13 992.40 992.55 993.08 993.31 993.62 994.22 994.59 995.03 995.47 995.72 996.15 996.43 996.67 996.88 996.70 996.40 995.86 995.49 995.43 994.91 993.66 992.14 991.22 991.05 991.07 990.98 991.08 991.80 992.96 994.10 994.37 994.93 995.54 996.60 997.36 998.14 998.92 1000.12
993.11 992.90 992.67 992.39 991.92 991.53 991.09 990.77 990.64 990.51 990.65 991.04 991.61 992.33 992.78 992.70 992.76 993.26 993.76 994.02 994.39 994.79 994.95 995.19 995.09 995.47 996.13 996.07 996.34 996.69 996.49 996.25 995.71 995.60 995.50 994.24 992.33 990.80 990.92 991.15 990.92 991.00 991.62 991.92 992.15 992.81 993.34 994.12 995.34 996.85 998.06 998.85 999.79 1000.77
992.70 992.59 992.40 992.18 991.77 991.41 990.97 990.61 990.51 990.73 991.03 991.17 991.66 992.44 992.90 993.22 993.47 993.74 994.19 994.45 994.53 994.56 994.78 994.87 995.22 995.52 995.97 995.96 996.11 996.35 996.17 996.13 995.52 995.51 995.26 993.79 992.02 991.27 990.60 990.60 991.17 991.57 991.99 992.33 992.80 993.40 994.29 995.40 996.27 997.38 998.53 999.60 1000.32 1001.35
992.36 992.29 992.11 991.93 991.57 991.25 990.82 990.47 990.52 990.88 991.29 991.52 991.97 993.11 993.47 993.90 993.90 993.84 994.18 994.24 994.30 994.19 994.52 994.84 995.15 995.43 995.89 995.87 996.04 996.09 995.92 995.85 995.52 995.30 994.04 992.57 991.84 991.30 990.92 991.48 991.97 992.24 992.69 993.32 993.82 994.59 995.36 996.38 997.52 998.13 999.07 1000.04 1001.21 1002.29
992.03 991.99 991.84 991.65 991.37 991.13 990.91 990.66 990.91 991.17 991.33 991.84 992.49 993.49 993.61 993.85 993.75 993.63 993.41 993.46 993.83 993.77 994.12 994.64 995.07 995.27 995.54 995.73 995.83 995.84 995.78 995.71 995.62 994.80 993.61 992.71 992.33 991.51 991.83 992.41 992.82 993.30 993.85 994.15 994.82 995.67 996.39 997.24 998.39 999.11 999.85 1000.95 1001.97 1003.02
991.71 991.68 991.55 991.43 991.21 990.91 990.51 990.58 991.05 991.50 991.86 992.32 992.65 993.44 993.60 993.69 993.68 993.59 993.47 993.62 993.77 993.88 994.18 994.67 995.07 995.15 995.39 995.61 995.60 995.78 995.85 995.41 994.77 993.88 993.73 993.28 992.70 992.48 993.05 993.22 993.78 994.14 994.87 995.27 995.97 996.75 997.59 998.46 999.35 1000.42 1001.16 1001.58 1002.57 1003.88
991.41 991.45 991.37 991.15 991.03 990.77 990.37 990.74 991.33 991.72 992.25 992.58 993.07 993.58 993.61 993.57 993.63 993.65 993.74 993.88 994.11 994.29 994.56 994.78 995.01 995.21 995.23 995.23 995.43 995.28 995.34 994.72 994.27 994.12 994.17 993.94 993.75 993.77 994.04 994.37 994.93 995.37 995.99 996.59 997.42 998.04 998.93 999.79 1000.43 1001.52 1002.52 1003.30 1004.17 1004.83
991.30 991.25 990.98 990.94 990.96 990.89 990.93 991.13 991.69 992.28 992.68 993.14 993.64 993.84 993.80 993.70 993.73 993.82 993.84 994.20 994.41 994.52 994.60 994.82 994.95 994.99 995.24 995.29 995.22 995.08 995.03 994.86 994.95 994.95 994.85 994.79 994.63 994.94 995.47 995.99 996.56 997.07 997.51 998.04 998.69 999.63 1000.54 1001.39 1001.85 1002.56 1003.96 1005.16 1005.32 1005.90
991.15 991.03 990.87 990.81 990.97 991.04 991.36 991.77 992.23 992.70 993.27 993.66 993.76 994.00 994.03 994.09 993.94 994.02 994.28 994.45 994.52 994.47 994.49 994.28 994.30 994.71 994.85 994.96 994.98 995.12 995.39 995.83 995.94 995.98 995.99 996.17 996.21 996.30 996.55 997.10 997.93 998.50 999.16 999.83 1000.19 1000.93 1001.41 1002.03 1002.84 1004.29 1005.20 1005.78 1006.26 1007.04
990.76 990.89 990.78 990.64 990.91 991.21 992.04 992.67 992.75 993.28 993.86 993.89 994.10 994.27 994.33 994.40 994.42 994.40 994.40 994.37 994.38 994.28 994.31 994.33 994.58 994.92 995.12 995.20 995.32 995.60 996.05 996.27 996.65 997.13 997.34 997.46 997.50 997.48 997.80 998.35 999.13 999.73 1000.40 1001.00 1001.30 1002.03 1002.83 1003.35 1003.95 1004.93 1005.73 1006.27 1006.88 1007.90
990.56 990.62 990.51 990.69 990.90 991.50 992.53 993.29 993.22 993.46 993.99 994.28 994.39 994.70 994.83 994.99 995.05 994.85 994.67 994.53 994.45 994.60 994.89 995.26 995.65 995.83 995.81 995.72 995.84 996.10 996.54 996.92 997.03 997.68 998.47 998.92 999.09 998.95 999.29 999.69 1000.35 1001.07 1001.55 1002.19 1002.68 1003.09 1003.76 1004.66 1005.52 1006.16 1006.70 1007.19 1007.76 1008.61
990.68 990.78 990.79 990.90 991.55 992.14 993.17 993.72 994.03 994.22 994.33 994.60 994.89 995.02 995.46 995.51 995.34 995.28 995.30 995.21 995.24 995.98 996.19 996.40 996.52 996.61 996.59 996.46 996.46 996.74 997.00 997.14 997.29 997.39 998.79 999.78 1000.20 1000.04 1000.38 1000.98 1001.36 1001.93 1002.42 1003.28 1003.78 1004.57 1004.90 1005.70 1006.60 1007.02 1007.46 1008.09 1008.55 1009.18
990.52 990.64 991.16 991.41 992.37 993.11 993.76 994.16 994.16 994.42 994.67 995.05 995.18 995.29 995.81 996.11 996.19 996.13 996.05 995.94 996.83 997.28 997.22 997.26 997.43 997.44 997.25 997.34 997.55 997.66 997.77 997.99 998.39 998.87 999.67 1000.05 1000.80 1001.35 1001.91 1002.32 1002.52 1003.26 1003.80 1004.29 1004.72 1005.41 1006.20 1006.80 1007.32 1007.87 1008.47 1009.41 1009.87 1010.43
990.41 990.80 991.84 992.51 993.58 994.22 994.96 994.60 994.57 994.73 995.03 995.39 995.57 996.09 996.53 996.54 996.51 996.38 996.97 997.43 997.78 997.97 997.87 997.96 997.98 997.97 998.00 998.36 998.49 998.79 998.91 998.72 999.59 1000.18 1000.73 1001.32 1001.91 1002.38 1002.69 1003.15 1003.42 1003.88 1004.71 1005.61 1005.89 1006.51 1007.34 1008.12 1008.65 1009.00 1009.63 1010.03 1010.45 1011.01
990.55 991.85 993.18 993.77 994.42 995.43 995.23 995.15 995.07 995.32 995.51 995.91 996.44 996.97 997.06 997.02 996.89 997.17 997.86 998.15 998.41 998.33 998.35 998.48 998.36 998.51 998.85 999.15 999.64 1000.00 1000.14 999.98 1000.61 1001.39 1001.84 1002.02 1002.90 1003.81 1004.07 1004.55 1004.98 1005.37 1005.74 1006.45 1007.09 1007.75 1008.34 1008.87 1009.42 1009.78 1010.30 1010.75 1011.30 1011.78
991.76 994.04 994.17 995.01 995.10 995.60 996.03 996.11 996.09 996.17 996.62 996.98 997.24 997.61 997.61 997.48 998.09 998.44 998.65 998.84 998.88 999.14 999.34 999.15 999.03 999.16 999.75 1000.52 1001.01 1001.12 1001.08 1000.91 1001.50 1002.60 1003.52 1003.45 1004.14 1004.86 1005.48 1005.97 1006.43 1006.90 1007.09 1007.26 1008.27 1008.77 1009.45 1009.90 1010.24 1010.68 1011.30 1011.91 1012.41 1012.78
992.84 994.14 994.21 994.45 995.09 995.30 995.76 996.17 996.37 996.66 997.07 997.53 997.95 998.13 998.20 998.54 999.04 999.28 999.18 999.30 999.40 999.57 999.79 999.59 999.77 1000.32 1001.03 1001.34 1001.81 1002.13 1002.42 1002.34 1002.44 1003.55 1004.79 1004.74 1004.80 1005.07 1006.00 1006.70 1007.38 1008.13 1008.26 1008.40 1008.96 1009.71 1010.42 1010.95 1011.43 1011.95 1012.54 1013.10 1013.52 1013.68
993.41 994.07 993.91 993.72 994.09 994.66 995.56 995.96 996.23 996.45 997.16 997.62 998.09 998.61 998.97 999.59 999.82 999.59 999.58 999.73 999.76 1000.06 1000.17 1000.12 1000.13 1000.43 1001.48 1002.38 1003.03 1003.40 1003.51 1003.58 1003.90 1005.20 1006.03 1006.25 1006.49 1006.54 1006.67 1007.52 1008.53 1009.45 1009.52 1009.72 1010.22 1010.74 1011.40 1011.99 1012.49 1012.98 1013.49 1014.10 1014.61 1014.88
993.00 993.36 993.78 994.28 994.43 994.71 995.44 996.00 996.48 996.71 996.91 997.11 997.77 998.84 999.48 999.66 999.99 999.83 999.94 1000.23 1000.41 1000.78 1000.99 1001.29 1001.52 1001.86 1002.66 1003.47 1004.01 1004.34 1004.92 1005.34 1005.74 1006.21 1006.80 1007.83 1008.60 1008.91 1009.20 1009.62 1010.20 1010.61 1011.01 1011.33 1011.66 1011.99 1012.49 1012.99 1013.49 1014.05 1014.51 1014.97 1015.59 1015.89
993.26 993.39 993.72 994.59 994.89 995.14 995.68 995.96 996.16 996.22 996.24 996.70 997.89 998.91 999.70 1000.28 1000.71 1000.52 1000.49 1000.71 1001.10 1001.38 1001.61 1002.44 1003.44 1003.60 1004.06 1004.67 1005.16 1005.61 1005.92 1006.00 1006.06 1007.02 1008.00 1009.46 1010.42 1011.48 1011.55 1011.47 1011.73 1011.95 1012.20 1012.51 1012.95 1013.28 1013.70 1014.13 1014.66 1015.22 1015.73 1016.11 1016.56 1016.65
993.61 993.52 994.17 994.84 995.33 996.08 996.35 996.30 996.38 996.51 996.43 996.78 997.66 999.11 1000.13 1001.19 1001.68 1001.47 1001.19 1001.45 1001.89 1002.43 1002.90 1003.46 1004.09 1004.34 1005.01 1005.47 1006.54 1007.15 1007.43 1007.38 1007.14 1007.60 1008.63 1010.09 1011.36 1012.29 1012.51 1012.68 1013.01 1013.37 1013.45 1013.65 1014.06 1014.68 1015.01 1015.30 1015.77 1016.21 1016.64 1016.95 1017.07 1017.16
993.58 993.82 994.68 995.17 995.83 996.35 996.48 996.58 996.50 996.72 997.22 998.16 998.74 999.34 1000.67 1001.69 1002.31 1002.79 1002.91 1002.97 1003.15 1003.52 1003.89 1004.58 1005.34 1005.91 1006.24 1006.82 1007.14 1007.59 1008.61 1009.11 1008.92 1008.95 1009.49 1010.87 1012.03 1012.83 1013.46 1013.83 1014.05 1014.18 1014.40 1014.67 1014.98 1015.54 1016.09 1016.60 1017.03 1017.34 1017.59 1017.78 1017.97 1017.94
994.29 994.75 995.13 995.67 996.20 996.54 996.71 997.14 997.80 998.41 999.06 999.59 1000.41 1000.89 1001.78 1002.45 1003.65 1004.41 1004.96 1004.45 1004.06 1004.46 1005.13 1005.58 1006.29 1007.46 1007.76 1008.03 1008.27 1008.56 1009.13 1010.10 1010.57 1011.00 1011.44 1012.35 1013.25 1013.86 1014.25 1014.62 1014.83 1015.02 1015.40 1015.94 1016.37 1016.84 1017.21 1017.53 1017.92 1018.20 1018.39 1018.53 1018.59 1018.56
995.26 995.16 995.31 995.75 996.21 996.54 997.06 997.44 998.59 999.78 1000.32 1001.10 1001.89 1002.51 1003.43 1004.01 1005.21 1005.84 1006.06 1006.09 1005.82 1005.85 1006.49 1007.18 1007.89 1008.50 1009.02 1009.35 1009.81 1010.49 1010.98 1011.61 1012.11 1012.54 1013.07 1013.61 1014.09 1014.63 1015.07 1015.45 1015.79 1016.17 1016.55 1016.96 1017.38 1017.72 1018.04 1018.39 1018.72 1018.93 1019.08 1019.13 1019.13 1019.05
Wind_Speed
22 23 25 27 27 29 29 30 26 20 21 20 19 18 19 23 27 15 8 8 11 4 3 2 9 12 11 15 12 6 5 5 4 10 8 7 8 10 7 5 6 12 10 6 4 6 17 7 4 16 1 1 2 2
22 22 24 26 27 29 28 29 17 17 11 3 6 16 26 21 38 19 7 2 3 6 4 3 3 2 11 15 11 4 6 5 9 8 4 5 4 4 11 10 4 8 7 9 11 7 4 6 1 3 3 1 2 0
21 21 24 26 27 28 28 25 10 14 5 12 19 22 35 33 29 15 5 5 4 5 4 5 4 1 1 4 5 9 3 2 2 2 2 2 8 6 7 7 6 6 2 3 3 6 6 4 3 2 3 3 1 2
20 20 23 24 25 29 28 16 7 7 3 10 19 24 20 15 15 10 6 2 6 5 5 2 2 0 1 5 6 5 2 0 4 3 3 6 4 3 4 5 4 5 9 7 4 3 1 5 7 7 5 4 7 7
19 19 22 23 22 27 30 15 9 4 5 13 13 19 20 20 19 11 5 3 1 7 4 3 2 3 2 5 10 8 9 10 4 6 4 4 4 5 2 1 4 9 9 8 5 6 2 4 11 9 9 8 9 14
17 18 20 21 20 24 24 22 10 2 5 6 21 20 22 22 19 6 3 3 4 5 6 4 1 2 1 3 4 11 9 5 3 3 4 3 7 3 6 5 5 12 10 5 4 9 4 1 3 7 9 12 11 12
16 17 19 18 17 21 25 22 18 4 10 12 13 16 20 11 5 4 3 3 5 4 4 3 0 1 0 2 1 1 1 2 2 3 5 2 4 3 2 5 5 13 13 10 8 11 2 4 4 9 12 13 14 14
14 15 16 17 17 12 20 22 24 4 15 16 18 22 20 19 9 6 6 4 5 6 3 4 2 2 4 2 2 1 0 2 3 2 2 3 2 1 5 6 3 9 11 10 12 3 5 9 11 12 15 17 17 15
13 13 14 15 15 12 10 17 20 21 19 22 23 18 7 6 3 2 12 10 4 3 5 3 6 4 3 1 1 1 0 2 1 3 2 2 4 6 6 8 11 11 12 11 9 7 12 12 14 14 15 15 17 15
11 12 12 13 12 10 6 6 12 13 15 13 7 4 3 3 16 5 5 3 3 3 2 3 2 4 3 2 1 1 1 1 2 1 2 3 4 7 5 4 6 8 8 15 12 9 10 13 15 16 15 13 14 15
10 11 11 12 13 11 7 1 3 6 6 3 3 3 2 3 2 3 3 2 2 2 1 2 2 4 0 2 2 1 2 1 2 2 3 2 5 3 8 8 4 5 10 13 11 11 15 17 18 16 14 13 13 14
9 10 10 11 13 12 9 4 5 2 1 4 6 4 2 2 2 4 2 3 2 3 4 4 3 2 2 1 2 2 0 1 2 2 1 4 4 3 3 4 5 7 10 9 11 13 13 14 14 15 12 12 12 13
9 9 10 10 12 13 10 5 8 13 10 2 3 3 1 1 6 4 5 2 2 4 4 4 4 2 2 1 2 1 2 2 1 2 4 4 3 3 5 6 7 8 10 11 13 12 15 14 12 14 14 11 14 12
9 8 9 10 10 12 6 3 9 2 3 3 3 3 2 0 0 1 2 3 2 3 6 4 3 2 2 2 2 2 1 2 3 3 4 3 4 4 7 6 10 10 10 12 14 14 15 15 13 10 11 12 13 12
10 8 8 9 7 11 7 11 10 3 2 2 3 2 1 2 2 1 2 3 2 4 4 4 3 2 2 2 1 2 2 5 5 3 2 3 2 6 7 9 10 11 9 11 11 12 12 13 14 12 9 11 13 11
7 6 4 4 8 8 9 10 3 2 2 2 4 2 1 2 2 2 3 3 2 2 3 2 2 2 1 1 2 4 3 4 2 1 2 1 3 8 8 8 9 10 10 11 10 11 12 13 14 13 12 12 10 12
5 3 3 4 7 3 4 3 2 3 2 3 2 1 1 2 3 2 2 2 2 2 2 2 3 2 3 1 2 3 3 2 3 2 3 2 6 10 10 10 10 10 12 13 13 12 13 12 13 14 16 10 12 13
3 2 4 3 2 2 3 3 3 2 3 2 1 1 2 1 3 4 2 1 2 2 2 3 3 4 3 3 2 2 1 2 4 5 6 6 8 10 9 13 11 12 13 11 12 12 12 12 14 11 12 12 12 12
4 3 4 4 4 3 3 3 3 3 2 0 2 1 2 2 2 2 1 0 1 0 2 1 2 1 0 0 2 3 5 3 4 5 7 10 8 11 12 13 13 13 12 10 10 9 8 10 11 9 8 7 9 7
5 1 4 4 2 3 3 2 2 3 2 1 2 2 2 2 1 2 2 3 2 1 4 3 2 2 2 2 1 5 6 7 8 9 8 8 6 10 10 10 9 11 11 12 11 11 10 9 8 7 7 8 8 7
3 0 6 3 3 4 4 1 3 1 2 3 1 2 2 2 3 3 3 3 4 3 3 3 3 3 4 5 6 5 5 2 3 5 7 8 6 8 9 8 10 8 9 7 8 7 8 8 7 6 7 6 6 6
2 4 3 4 4 3 4 2 2 2 3 2 2 2 3 2 2 3 3 5 3 2 2 2 2 2 5 6 6 7 9 12 12 12 12 10 9 8 7 6 8 8 7 7 7 8 8 6 6 6 7 6 5 5
6 4 4 3 6 5 2 1 2 2 3 2 1 3 2 2 1 2 4 1 1 2 2 3 4 5 8 6 9 10 7 14 10 9 9 8 8 7 7 7 7 9 8 5 6 7 7 6 6 7 6 6 5 4
5 5 4 3 4 2 1 3 2 2 2 3 3 2 2 1 2 4 3 2 1 1 3 3 4 7 6 9 6 6 6 8 9 9 6 9 9 8 8 7 7 7 7 7 7 7 6 6 6 6 5 6 4 4
8 4 6 4 3 5 4 2 3 4 2 1 4 2 1 1 3 3 1 1 1 2 2 2 5 6 6 5 4 5 6 5 9 9 6 7 9 8 8 8 8 6 3 7 6 7 6 6 6 7 6 5 4 4
6 3 5 5 1 4 4 4 4 4 4 4 2 2 2 3 4 1 1 1 1 1 2 3 6 5 5 3 5 5 3 3 8 9 5 4 5 8 7 7 6 5 6 6 7 9 8 6 6 6 5 5 5 4
4 1 1 0 3 4 4 3 3 4 4 4 3 3 3 4 2 1 2 2 1 2 1 1 2 6 7 6 6 6 6 8 10 9 8 9 9 7 5 6 7 4 5 7 7 7 8 6 5 5 5 4 4 4
3 3 6 2 3 1 6 3 3 4 4 2 4 4 4 4 2 2 2 3 5 5 7 8 8 7 8 8 7 8 9 10 12 12 12 12 10 9 10 9 9 12 8 7 8 7 7 6 5 5 5 5 4 4
2 1 5 5 3 4 2 3 3 1 2 3 5 3 3 3 3 3 2 4 5 5 8 9 8 7 9 8 8 7 5 4 9 14 15 8 6 6 5 6 7 7 7 9 11 10 10 8 8 7 7 6 4 4
0 1 5 3 5 3 2 1 2 1 2 3 5 5 4 3 4 5 3 5 6 6 6 7 5 6 8 9 7 8 7 6 4 6 7 8 7 5 4 6 6 5 5 7 7 7 8 7 6 5 7 6 5 5
2 3 5 4 4 3 6 3 5 6 4 6 6 8 6 4 3 6 8 5 6 6 8 8 8 6 7 6 6 7 6 7 8 13 13 10 8 7 6 5 5 5 6 7 7 8 7 7 6 7 8 8 7 6
4 4 5 4 4 2 2 4 4 5 4 5 4 3 3 4 5 5 7 6 4 7 6 7 8 5 5 6 7 9 13 8 8 9 12 9 8 7 7 6 6 7 9 9 8 7 9 9 7 7 7 7 7 6
3 3 5 4 3 3 3 5 4 4 4 3 4 2 3 3 4 1 3 7 4 5 7 8 8 8 10 11 11 9 10 10 14 15 14 12 11 9 6 6 7 8 10 9 8 8 10 11 9 8 7 6 6 6
Wind_Direction
310 312 313 312 316 319 317 315 305 302 302 281 220 211 210 205 164 144 156 154 169 113 80 148 161 164 178 200 199 188 141 200 165 222 239 183 206 200 175 178 179 183 170 172 163 206 250 149 132 181 105 10 293 245
313 315 315 317 323 326 326 321 306 325 330 233 184 236 226 209 156 141 115 71 104 90 119 76 63 23 196 199 187 175 223 145 190 194 228 247 166 169 166 224 172 211 195 171 194 209 157 196 208 130 123 89 348 164
316 318 319 318 328 332 330 322 321 358 40 106 94 92 114 132 143 130 122 134 115 114 105 139 141 158 47 148 116 189 250 131 215 98 238 237 254 149 176 195 126 214 143 160 129 195 210 200 261 142 136 128 57 330
318 322 322 321 329 337 333 320 322 344 25 124 120 121 117 128 126 100 92 303 87 110 101 100 114 261 178 163 166 149 171 146 257 168 184 237 263 264 190 170 146 139 144 172 261 251 187 219 223 194 174 120 120 127
320 325 324 326 329 343 338 328 320 334 42 163 146 123 100 97 88 72 71 16 44 107 116 143 133 201 199 196 215 184 200 215 212 217 172 240 211 149 304 143 170 166 165 186 210 167 157 220 202 169 157 176 159 139
320 327 327 331 335 347 346 356 338 96 89 107 170 132 121 122 121 114 83 335 4 102 127 146 33 180 154 219 266 225 224 214 190 277 178 213 254 224 164 197 206 172 172 155 162 187 158 87 107 155 153 153 150 135
318 326 330 336 338 356 354 4 358 167 130 90 112 149 143 133 64 84 155 167 175 77 78 88 257 220 76 92 48 116 59 137 167 209 219 166 259 213 163 205 177 185 178 173 157 119 91 224 202 147 126 121 113 108
314 324 330 339 339 358 357 3 8 39 134 111 92 100 84 91 68 35 16 70 44 79 86 135 168 202 174 177 195 215 158 143 184 245 222 195 28 238 225 222 172 164 161 170 173 101 139 119 125 128 127 126 121 127
307 317 326 336 335 348 9 356 10 30 75 111 107 81 45 40 79 126 103 76 56 91 134 140 159 182 119 142 126 156 291 206 254 228 252 229 149 227 229 189 188 167 170 173 160 129 140 138 138 135 133 132 125 133
297 310 321 333 333 342 5 343 358 31 42 55 51 52 64 57 132 105 21 35 40 16 36 96 164 135 163 158 108 187 245 235 218 59 345 252 232 238 237 234 193 174 143 143 131 139 131 134 142 146 145 136 134 141
286 301 315 328 335 338 346 11 293 21 57 43 60 63 62 310 47 44 88 95 98 74 113 123 110 123 274 152 153 214 212 259 232 120 260 271 263 253 185 199 198 158 159 173 172 157 162 153 147 143 142 136 135 137
274 292 309 323 329 329 332 312 155 57 94 139 106 96 73 45 49 100 67 128 175 169 172 144 139 123 134 150 139 173 212 307 213 141 189 246 250 266 165 153 154 155 160 143 137 131 130 138 141 138 134 138 124 114
266 282 301 317 325 324 338 88 89 111 119 114 77 81 103 329 53 114 150 170 160 166 172 165 139 116 130 109 85 131 188 233 147 236 240 245 310 276 115 112 109 118 116 114 107 113 121 115 116 133 123 113 121 119
263 273 295 310 316 320 337 207 137 174 44 79 112 77 156 337 238 184 158 143 160 141 153 110 101 110 108 88 129 149 159 197 231 236 249 288 287 104 106 109 120 119 124 117 117 121 120 120 113 102 111 127 123 122
264 266 293 299 313 314 297 168 123 60 66 74 78 112 117 97 86 94 122 113 81 130 123 107 70 86 119 145 205 125 194 230 222 224 242 307 324 102 115 109 117 112 110 107 116 114 112 116 114 100 96 102 104 105
249 283 248 275 325 329 112 110 66 73 54 58 47 72 95 124 109 121 99 100 71 104 95 87 106 122 154 142 155 211 200 237 253 244 315 5 103 95 87 83 94 94 99 101 97 102 105 109 109 100 85 87 95 108
195 239 243 322 338 76 139 84 82 59 85 61 75 86 96 82 95 98 106 96 81 104 94 120 132 177 106 251 228 196 234 328 342 7 6 21 116 108 98 88 85 98 99 98 97 93 97 104 108 100 99 97 99 97
208 257 275 310 2 66 44 41 89 82 77 40 95 44 63 4 111 83 91 125 144 152 189 203 136 179 177 202 209 164 106 52 52 51 52 64 95 98 101 98 89 93 94 91 98 102 102 100 95 101 109 108 99 95
206 203 257 286 180 101 85 31 47 96 92 25 100 50 62 66 39 69 1 200 189 231 129 52 72 76 194 87 141 134 141 134 95 65 59 53 65 87 90 86 87 87 86 92 98 92 88 86 107 110 110 111 102 108
163 60 91 101 138 88 87 38 34 81 83 53 67 44 59 59 351 1 19 26 24 76 48 40 19 355 333 7 55 129 129 131 119 96 73 63 61 81 84 98 100 109 99 90 79 88 92 85 87 107 109 115 118 121
134 182 67 74 53 61 85 86 63 79 107 76 90 97 65 20 4 16 7 346 54 28 51 32 24 18 35 71 79 97 94 98 83 111 125 103 75 91 89 80 84 86 94 96 98 87 86 102 117 111 106 94 94 102
163 111 82 22 76 53 70 12 113 124 78 78 56 53 61 60 14 5 316 46 53 15 25 95 90 86 83 61 63 68 95 90 89 90 88 101 99 92 92 100 105 95 89 96 104 105 102 103 101 97 102 101 102 102
113 66 56 53 73 50 87 7 86 46 99 108 53 70 30 52 333 312 66 66 74 15 30 79 81 82 92 82 90 69 81 99 90 87 91 89 83 80 84 72 83 100 97 72 88 99 100 100 95 104 107 98 99 93
52 63 73 79 90 167 16 30 74 84 69 77 89 89 38 53 357 50 74 50 2 327 84 91 121 98 71 67 66 63 57 92 92 74 71 95 83 64 70 74 71 70 88 104 93 94 92 92 100 92 93 96 86 88
82 335 89 46 358 82 76 49 23 67 95 92 87 81 340 53 72 48 73 18 39 86 66 65 63 73 94 88 74 69 29 94 103 94 43 93 108 100 81 75 69 59 77 101 92 96 90 90 85 87 80 77 84 69
85 273 104 165 201 116 170 125 155 153 117 73 95 88 59 84 74 105 43 10 112 164 171 131 125 100 68 69 115 85 62 68 101 91 60 49 89 112 112 105 94 50 28 93 111 104 97 87 88 90 86 72 57 39
103 219 147 171 116 106 76 69 99 99 103 140 165 102 87 86 162 145 107 19 71 57 40 45 95 111 124 111 85 61 60 58 76 90 80 59 48 37 83 108 99 82 78 86 91 103 111 105 92 79 81 73 51 36
148 146 135 211 83 70 122 90 115 143 159 135 98 71 115 146 109 69 71 68 86 86 80 64 60 80 94 97 98 101 90 97 99 99 87 63 49 48 60 69 72 77 77 73 85 80 84 89 89 83 77 79 73 44
82 103 98 51 66 60 86 136 164 119 117 104 109 116 96 63 14 15 62 95 104 115 99 95 79 89 85 76 63 58 74 101 112 97 95 101 92 47 31 71 76 74 82 84 79 80 80 82 83 81 72 70 61 50
191 107 96 71 77 61 325 1 92 93 46 86 102 107 80 63 14 356 51 88 93 98 94 97 100 111 110 107 96 64 34 22 47 122 129 131 124 125 102 90 86 81 84 90 96 88 67 69 68 58 59 55 44 37
94 79 76 69 76 58 103 111 77 65 55 63 47 94 98 122 81 33 29 37 96 106 105 101 89 79 102 104 109 104 82 21 56 83 93 101 108 108 101 91 89 89 88 87 81 81 85 74 73 72 64 58 44 36
40 85 114 99 103 117 72 61 56 75 71 78 75 61 50 61 65 26 2 337 100 91 85 104 104 85 70 83 75 70 90 102 93 92 97 100 99 99 98 98 90 87 87 86 87 91 90 88 80 72 69 59 47 37
58 46 60 83 88 102 19 90 75 83 44 57 45 62 56 77 100 46 34 16 26 84 97 93 89 83 80 83 90 89 80 81 83 84 83 87 93 100 97 90 91 93 94 95 92 93 87 87 80 74 69 63 54 43